カタログに戻る

ANNA 1B

運用中科学LEO
NORAD 446·PAYLOAD·🇺🇸 United States

打ち上げ Oct 31, 1962 から Cape Canaveral Space Force Station

Loading…

次のパス (今後24時間)

TLE

最新Source: Space-Track

元期: Sep 14, 2026, 15:44 UTC

1 00446U 62060A   26257.65565916 -.00000109  00000-0  31941-4 0  9996
2 00446  50.1434  31.7825 0069975 281.0091  91.8394 13.35366128115667

AllMySatでANNA 1Bをリアルタイム追跡

Download on the App Store